TimeEET,TemperatureF,Dew PointF,Humidity,Sea Level PressureIn,VisibilityMPH,Wind Direction,Wind SpeedMPH,Gust SpeedMPH,PrecipitationIn,Events,Conditions,WindDirDegrees,DateUTC
12:20 AM,44.6,42.8,93,29.98,6.2,East,8.1,-,N/A,,Mostly Cloudy,90,2012-11-09 22:20:00
12:50 AM,44.6,42.8,93,29.95,6.2,ENE,5.8,-,N/A,,Mostly Cloudy,70,2012-11-09 22:50:00
1:20 AM,44.6,42.8,93,29.95,6.2,SE,4.6,-,N/A,,Mostly Cloudy,130,2012-11-09 23:20:00
1:50 AM,44.6,42.8,93,29.95,6.2,SE,4.6,-,N/A,Rain,Light Rain Showers,140,2012-11-09 23:50:00
2:00 AM,45,43,88,,12,SE,4.6,,,Rain,Light Rain Showers,140,2012-11-10 00:00:00
2:20 AM,44.6,42.8,93,29.95,6.2,NW,6.9,-,N/A,,Mostly Cloudy,310,2012-11-10 00:20:00
2:50 AM,44.6,42.8,93,29.95,6.2,NW,5.8,-,N/A,,Mostly Cloudy,320,2012-11-10 00:50:00
3:20 AM,44.6,42.8,93,29.95,6.2,Variable,1.2,-,N/A,Rain,Light Rain Showers,0,2012-11-10 01:20:00
3:50 AM,48.2,41.0,76,29.95,6.2,SSW,4.6,-,N/A,,Mostly Cloudy,210,2012-11-10 01:50:00
4:20 AM,46.4,41.0,81,29.95,6.2,Variable,4.6,-,N/A,,Mostly Cloudy,0,2012-11-10 02:20:00
4:50 AM,46.4,42.8,87,29.95,6.2,East,3.5,-,N/A,,Mostly Cloudy,80,2012-11-10 02:50:00
5:20 AM,44.6,42.8,93,29.95,6.2,Variable,3.5,-,N/A,Rain,Light Rain Showers,0,2012-11-10 03:20:00
5:50 AM,42.8,41.0,93,29.95,6.2,North,6.9,-,N/A,,Mostly Cloudy,350,2012-11-10 03:50:00
6:20 AM,44.6,41.0,87,29.95,6.2,ESE,9.2,-,N/A,,Scattered Clouds,110,2012-11-10 04:20:00
6:50 AM,42.8,41.0,93,29.95,6.2,SE,5.8,-,N/A,,Mostly Cloudy,130,2012-11-10 04:50:00
7:20 AM,46.4,41.0,81,29.95,6.2,South,4.6,-,N/A,,Mostly Cloudy,180,2012-11-10 05:20:00
7:50 AM,46.4,41.0,81,29.95,6.2,SSW,3.5,-,N/A,,Mostly Cloudy,200,2012-11-10 05:50:00
8:00 AM,47,41,73,,12,SSW,3.5,,,,Partly Cloudy,200,2012-11-10 06:00:00
8:20 AM,46.4,42.8,87,29.98,6.2,SSE,6.9,-,N/A,,Mostly Cloudy,150,2012-11-10 06:20:00
8:50 AM,46.4,41.0,81,29.98,6.2,SSE,4.6,-,N/A,Rain,Light Rain Showers,160,2012-11-10 06:50:00
9:20 AM,44.6,41.0,87,29.98,6.2,South,10.4,-,N/A,Rain,Light Rain Showers,180,2012-11-10 07:20:00
9:50 AM,44.6,41.0,87,29.98,6.2,SSW,6.9,-,N/A,Rain,Light Rain Showers,200,2012-11-10 07:50:00
10:20 AM,46.4,41.0,81,29.98,6.2,Variable,3.5,-,N/A,Rain,Light Rain Showers,0,2012-11-10 08:20:00
10:50 AM,48.2,42.8,82,29.98,6.2,WNW,4.6,-,N/A,,Mostly Cloudy,300,2012-11-10 08:50:00
11:20 AM,46.4,42.8,87,29.95,6.2,NNW,9.2,-,N/A,,Mostly Cloudy,340,2012-11-10 09:20:00
11:50 AM,48.2,41.0,76,29.95,6.2,NNE,6.9,-,N/A,,Mostly Cloudy,30,2012-11-10 09:50:00
12:20 PM,50.0,42.8,76,29.95,6.2,NE,6.9,-,N/A,,Mostly Cloudy,40,2012-11-10 10:20:00
12:50 PM,48.2,41.0,76,29.92,6.2,ENE,10.4,-,N/A,,Mostly Cloudy,70,2012-11-10 10:50:00
1:20 PM,48.2,42.8,82,29.95,6.2,ESE,4.6,-,N/A,Rain,Light Rain Showers,120,2012-11-10 11:20:00
1:50 PM,48.2,42.8,82,29.95,6.2,ENE,4.6,-,N/A,Rain,Light Rain Showers,70,2012-11-10 11:50:00
2:00 PM,48,42,74,,12,ENE,4.6,,,Rain,Light Rain Showers,70,2012-11-10 12:00:00
2:20 PM,48.2,44.6,87,29.95,6.2,NNE,8.1,-,N/A,,Mostly Cloudy,30,2012-11-10 12:20:00
2:50 PM,48.2,42.8,82,29.95,6.2,NNE,5.8,-,N/A,,Mostly Cloudy,20,2012-11-10 12:50:00
3:20 PM,48.2,44.6,87,29.95,6.2,North,4.6,-,N/A,,Mostly Cloudy,350,2012-11-10 13:20:00
3:50 PM,46.4,41.0,81,29.98,6.2,WSW,10.4,-,N/A,Rain,Light Rain Showers,250,2012-11-10 13:50:00
4:20 PM,44.6,41.0,87,29.98,6.2,SW,9.2,-,N/A,Rain,Light Rain Showers,220,2012-11-10 14:20:00
4:50 PM,42.8,39.2,87,30.01,6.2,SSW,8.1,-,N/A,Rain,Light Rain Showers,210,2012-11-10 14:50:00
5:20 PM,42.8,39.2,87,30.01,6.2,West,8.1,-,N/A,Rain,Light Rain Showers,280,2012-11-10 15:20:00
5:50 PM,42.8,39.2,87,30.01,6.2,Variable,2.3,-,N/A,Rain,Light Rain Showers,0,2012-11-10 15:50:00
6:20 PM,42.8,41.0,93,30.01,6.2,Calm,Calm,-,N/A,Rain,Light Rain Showers,0,2012-11-10 16:20:00
6:50 PM,42.8,41.0,93,30.04,6.2,NNE,3.5,-,N/A,Rain,Light Rain Showers,30,2012-11-10 16:50:00
7:20 PM,42.8,41.0,93,30.01,6.2,North,5.8,-,N/A,Rain,Light Rain Showers,10,2012-11-10 17:20:00
7:50 PM,42.8,41.0,93,30.04,6.2,NNE,4.6,-,N/A,Rain,Light Rain Showers,30,2012-11-10 17:50:00
8:00 PM,42,41,95,,12,NNE,4.6,,,Rain,Light Rain Showers,30,2012-11-10 18:00:00
8:20 PM,41.0,41.0,100,30.04,6.2,ESE,2.3,-,N/A,Rain,Light Rain Showers,120,2012-11-10 18:20:00
8:50 PM,41.0,41.0,100,30.04,6.2,Calm,Calm,-,N/A,,Mostly Cloudy,0,2012-11-10 18:50:00
9:20 PM,41.0,41.0,100,30.04,6.2,SW,1.2,-,N/A,,Mostly Cloudy,230,2012-11-10 19:20:00
9:50 PM,41.0,41.0,100,30.04,6.2,Calm,Calm,-,N/A,,Mostly Cloudy,0,2012-11-10 19:50:00
10:20 PM,41.0,41.0,100,30.04,6.2,Calm,Calm,-,N/A,,Mostly Cloudy,0,2012-11-10 20:20:00
10:50 PM,41.0,41.0,100,30.04,6.2,Variable,1.2,-,N/A,,Mostly Cloudy,0,2012-11-10 20:50:00
11:20 PM,42.8,41.0,93,30.04,6.2,NE,5.8,-,N/A,,Mostly Cloudy,50,2012-11-10 21:20:00
11:50 PM,41.0,39.2,93,30.04,6.2,NE,6.9,-,N/A,,Mostly Cloudy,50,2012-11-10 21:50:00